OpenBCM V1.08-5-g2f4a (Linux)

Packet Radio Mailbox

IZ3LSV

[San Dona' di P. JN]

 Login: GUEST





  
I0OJJ  > KEPS     01.07.25 02:30l 343 Lines 16342 Bytes #103 (0) @ AMSAT
BID : ORB25182.1
Read: GUEST
Subj: 2Line Orbital Elements 25182.AMSAT
Path: IZ3LSV<IK6IHL<IK7NXU<HB9ON<HB9ON<PI8ZTM<KC9UHI<VK2RZ<IR0AAB<I0OJJ
Sent: 250701/0025z @:I0OJJ.ITA.EU [Rome] obcm1.08-10-g596e
From: I0OJJ @ I0OJJ.ITA.EU (Gustavo)
To:   KEPS @ AMSAT
X-Info: This message was generated automatically


QST de W1STR

AMSAT Orbital Elements for Amateur Satellites in TLE Format
From Orbital Analysis Office
New England Sci-Tech STEM Education Center
Natick, MA July 01, 2025
To all radio amateurs


These element sets describe the orbits of various satellites 
in use by the amateur radio community. For details see:
www.amsat.org/keplerian-elements-formats/

A daily update of element sets is available at:
www.amsat.org/tle/daily-bulletin.txt
or without bulletin text:
www.amsat.org/tle/dailytle.txt


AO-07
1 07530U 74089B   25181.87455472 -.00000043  00000-0  19183-4 0  9996
2 07530 101.9928 186.3653 0012652  81.8269 350.3151 12.53689901316731
UO-11
1 14781U 84021B   25181.89770735  .00000842  00000-0  94293-4 0  9994
2 14781  97.7554 147.8464 0006218 265.8748  94.1758 14.89436881225815
AO-27
1 22825U 93061C   25181.75640941  .00000058  00000-0  39145-4 0  9990
2 22825  98.7357 243.4167 0009285  56.0172 304.1891 14.30805294657013
FO-29
1 24278U 96046B   25181.60144642 -.00000030  00000-0  89300-5 0  9991
2 24278  98.5731  72.7259 0348856 288.2097  68.1368 13.53250046425619
NOAA-15
1 25338U 98030A   25181.84678541  .00000157  00000-0  82251-4 0  9996
2 25338  98.5339 206.4652 0009115 300.6256  59.4026 14.26990012411436
GO-32
1 25397U 98043D   25181.90691315  .00000035  00000-0  35252-4 0  9990
2 25397  98.9711 161.4723 0002061 121.3354 238.8026 14.24319394401548
ISS
1 25544U 98067A   25181.86034722  .00005730  00000-0  10713-3 0  9999
2 25544  51.6365 239.3035 0002095 317.1043  16.2145 15.50312841517279
NO-44
1 26931U 01043C   25181.39301900  .00000082  00000-0  61902-4 0  9993
2 26931  67.0513  74.0279 0006148 276.7625  83.2777 14.31743055240089
SO-50
1 27607U 02058C   25181.27393227  .00000978  00000-0  13910-3 0  9990
2 27607  64.5519 136.6549 0058689 329.5234  30.2464 14.81673120212290
CO-55
1 27844U 03031E   25181.54830544  .00000203  00000-0  10757-3 0  9990
2 27844  98.6754 189.5509 0010700 122.7602 237.4609 14.24009699141653
CO-57
1 27848U 03031J   25181.50651944  .00000174  00000-0  95997-4 0  9992
2 27848  98.6781 189.4995 0010326 138.7105 221.4856 14.23342565141348
RS-22
1 27939U 03042A   25181.81496828  .00000685  00000-0  11644-3 0  9990
2 27939  98.3297 351.7811 0010329 306.6351 165.6692 14.72393719163950
CO-58
1 28895U 05043F   25181.67229267  .00000992  00000-0  16966-3 0  9993
2 28895  98.2524 326.2892 0013441 237.0722 122.9192 14.71067966 50279
CO-65
1 32785U 08021C   25181.55525689  .00002676  00000-0  19500-3 0  9997
2 32785  97.7850 152.8774 0010899 134.9648 225.2463 15.04582337932230
CO-66
1 32791U 08021J   25181.85046754  .00008700  00000-0  41754-3 0  9998
2 32791  97.7285 162.3724 0005808  95.2948 264.8949 15.19108965933805
RS-30
1 32953U 08025A   25181.80940822  .00000014  00000-0  31804-4 0  9992
2 32953  82.5012 213.9759 0019168   3.5890 356.5324 12.43165820776176
NOAA-19
1 33591U 09005A   25181.79525967  .00000137  00000-0  96890-4 0  9999
2 33591  98.9965 246.6182 0012799 306.3224  53.6766 14.13383350845108
SRMSAT
1 37841U 11058D   25181.73607575  .00000358  00000-0  50501-4 0  9996
2 37841  19.9736  26.5225 0011735 297.7273 129.7003 14.11441296708321
ZACUBE-1
1 39417U 13066B   25181.84548096  .00003005  00000-0  26267-3 0  9995
2 39417  97.7817 138.7489 0043565 343.6859  16.2957 14.96827147628090
Delfi-N3xt
1 39428U 13066N   25181.73619635  .00003738  00000-0  38246-3 0  9996
2 39428  97.8337  99.1532 0082808 291.4741  67.7660 14.88622965622405
GOMX-1
1 39430U 13066Q   25181.89363368  .00001393  00000-0  22152-3 0  9999
2 39430  97.6817  39.2481 0133562 123.8414 237.5588 14.67706068618535
LO-74
1 39440U 13066AA  25181.83177593  .00001981  00000-0  20349-3 0  9996
2 39440  97.8499 126.2467 0063423 109.4274 251.3812 14.90041639625801
AO-73
1 39444U 13066AE  25181.52555205  .00004487  00000-0  33609-3 0  9993
2 39444  97.7803 143.5233 0041205 317.2904  42.5120 15.02561333626736
DTUSAT-2
1 40030U 14033W   25181.45282636  .00004369  00000-0  28451-3 0  9996
2 40030  98.0565 154.2848 0008968   1.8771 358.2488 15.08484626599543
EO-80
1 40032U 14033Y   25181.47195294  .00004881  00000-0  31671-3 0  9990
2 40032  98.0443 153.9308 0007007 294.9506  65.0992 15.08565019599528
LILACSAT-2
1 40908U 15049K   25181.80413543  .00008978  00000-0  23185-3 0  9999
2 40908  97.5048 202.6673 0011049  87.2025 273.0484 15.39316218541491
IO-86
1 40931U 15052B   25151.18580175  .00001241  00000-0  78118-4 0  9996
2 40931   6.0006  24.0987 0012733 338.8432  21.1169 14.78805930523047
Horyu-4
1 41340U 16012D   25181.77349764  .00016962  00000-0  44103-3 0  9995
2 41340  30.9980 349.3277 0006331 286.9088  73.0864 15.37637548516056
Lapan A3
1 41603U 16040E   25181.88806862  .00002295  00000-0  81452-4 0  9990
2 41603  97.1369 185.6608 0010761 183.4781 176.6387 15.29979782501049
CAS-2T
1 41847U 16066G   25181.47747100  .00001320  00000-0  19443-3 0  9990
2 41847  98.4197 255.7569 0347092 115.2413 248.5177 14.43545172454031
CAS-4B
1 42759U 17034B   25181.46987790  .00058274  00000-0  55407-3 0  9999
2 42759  43.0046 197.1329 0019162  74.7385 285.5598 15.65774168445871
CAS-4A
1 42761U 17034D   25181.73998818  .00060675  00000-0  54278-3 0  9998
2 42761  43.0084 192.4287 0020226  81.7347 278.5812 15.67236692445942
TechnoSat
1 42829U 17042E   25181.69911862  .00001678  00000-0  13284-3 0  9991
2 42829  97.3857 349.3981 0015928 201.6683 158.3870 15.01788904433896
AO-91
1 43017U 17073E   25181.87120612  .00006833  00000-0  34684-3 0  9995
2 43017  97.5210  52.1038 0173284  94.0886 268.0167 15.05008912412413
S-Net D
1 43186U 18014G   25181.67747333  .00003409  00000-0  20225-3 0  9993
2 43186  97.5604  84.3693 0010000 143.8806 216.3102 15.11983912405564
S-Net B
1 43187U 18014H   25181.61696866  .00003496  00000-0  20740-3 0  9990
2 43187  97.5608  84.2821 0010761 140.4912 219.7105 15.11962580405553
S-Net A
1 43188U 18014J   25181.28071007  .00003364  00000-0  19961-3 0  9995
2 43188  97.5619  84.1023 0010640 141.9422 218.2562 15.11985741405507
S-Net C
1 43189U 18014K   25181.28851901  .00003296  00000-0  19571-3 0  9996
2 43189  97.5632  84.1278 0012304 136.2956 223.9251 15.11955576404053
Ten-Koh
1 43677U 18084G   25181.46681931  .00001344  00000-0  11140-3 0  9995
2 43677  98.0854 354.5491 0007296 180.4751 179.6466 15.00648938363379
PO-101
1 43678U 18084H   25181.82474787  .00001468  00000-0  12838-3 0  9997
2 43678  98.1031 358.7600 0008177 208.3200 151.7578 14.98398768363569
QO-100
1 43700U 18090A   25181.86000273  .00000145  00000-0  00000+0 0  9994
2 43700   0.0195  28.7447 0002155 106.0472 119.7445  1.00270830 24396
MinXSS-2
1 43758U 18099A   25181.18236177  .00011681  00000-0  45246-3 0  9997
2 43758  97.5007 247.2906 0013143  86.8174 273.4568 15.26244341360111
AO-95
1 43770U 18099N   25181.09159134  .00005782  00000-0  29111-3 0  9996
2 43770  97.4902 238.9531 0011979 136.2327 223.9858 15.17526106359666
RANGE-A
1 43773U 18099R   25181.08842852  .00003190  00000-0  20400-3 0  9997
2 43773  97.4462 228.8959 0012771 118.8625 241.3888 15.09237242359310
MOVE-II
1 43780U 18099Y   25181.76589582  .00567113  12801-3  17792-2 0  9992
2 43780  97.4633 259.2546 0007372 234.7963 125.2621 15.91375071361156
SNUSat 2
1 43782U 18099AA  25181.41529692  .00005019  00000-0  27276-3 0  9998
2 43782  97.4581 235.8542 0013648  84.3824 275.8964 15.14862957359657
SnugLite
1 43784U 18099AC  25181.38100220  .00006114  00000-0  30500-3 0  9999
2 43784  97.4391 235.4235 0005128  89.7125 270.4696 15.17869794359797
ITASat 1
1 43786U 18099AE  25181.57642846  .00004316  00000-0  24648-3 0  9995
2 43786  97.4548 235.4603 0015688 130.7095 229.5502 15.13140484359635
EAGLET 1
1 43790U 18099AJ  25181.37032105  .00003177  00000-0  20343-3 0  9991
2 43790  97.4748 235.1467 0013507 116.2294 244.0325 15.09193337359203
ESEO
1 43792U 18099AL  25181.11152796  .00000588  00000-0  48298-4 0  9997
2 43792  97.4468 227.8850 0015188  91.9249 268.3716 15.02679476358909
CSIM
1 43793U 18099AM  25181.19205891  .00105945  00000-0  57585-3 0  9992
2 43793  97.4777 260.7536 0004689 140.2717 219.8894 15.79675763360890
JO-97
1 43803U 18099AX  25181.57040457  .00008197  00000-0  36996-3 0  9995
2 43803  97.4646 240.4631 0008907  78.1054 282.1180 15.21215835359962
Suomi 100
1 43804U 18099AY  25181.42135423  .00006477  00000-0  31465-3 0  9993
2 43804  97.4713 239.5519 0013836  79.0112 281.2678 15.18708665359869
ISAT
1 43879U 18111D   25181.74693590  .00013371  00000-0  45444-3 0  9992
2 43879  97.5941  96.6159 0010633 117.7494 242.4826 15.30541106354916
UWE-4
1 43880U 18111E   25181.71820896  .00010395  00000-0  40141-3 0  9994
2 43880  97.5884  94.9155 0013414 130.3607 229.8804 15.26378779354855
Sparrow
1 43881U 18111F   25181.31961177  .00014812  00000-0  48410-3 0  9994
2 43881  97.6088  99.1379 0007859 149.4310 210.7390 15.31805652356960
Prox-1
1 44339U 19036A   25181.58443926  .00006959  00000-0  85920-3 0  9996
2 44339  23.9972 283.7886 0006962 318.4653  41.5315 14.80298282321135
SONATE
1 44400U 19038Q   25181.60009209  .01325710  25898-5  76795-3 0  9999
2 44400  97.6690 211.8646 0009589 208.0393 152.0379 16.18784047332949
Taurus 1
1 44530U 19059C   25181.88546586  .00004215  00000-0  77766-3 0  9995
2 44530  98.6095 322.2945 0008144 335.3411  24.7401 14.66040653307068
Duchifat 3
1 44854U 19089C   25181.46600802  .00028969  00000-0  53753-3 0  9995
2 44854  36.9412 222.2370 0003853 146.3167 213.7836 15.48066496306252
TO-108
1 44881U 19093C   25181.84357827  .00000628  00000-0  78510-4 0  9999
2 44881  97.7921 257.0488 0014391 156.4512 203.7365 14.85635436299234
